Location: Alliance United Methodist Church
(32.8712°N, 97.2689°W)
Time: 12:41:18
(UTC+00:00)

Daily predictions for brighter satellites

Satellite Brightness Start Highest point End
(mag) Time Altitude Azimuth Time Altitude Azimuth Time Altitude Azimuth
ASTRO E2 3.7 12:02:07 21° WSW 12:03:46 30° SSW 12:07:00 10° SE
ERS-2 2.0 12:01:24 10° NNE 12:04:19 61° ESE 12:07:12 10° S
Cosmos 1634 Rocket 4.2 12:01:06 10° S 12:07:14 76° E 12:13:26 10° N
SKYMED 2 3.5 12:03:01 10° S 12:07:17 62° W 12:11:36 10° NNW
Nadezhda 4 Rocket 4.0 12:03:02 10° NNW 12:09:02 59° W 12:15:05 10° S
Milstar 3 Cent rocket 3.4 12:05:31 16° WSW 12:09:39 45° S 12:18:15 10° ESE
Cosmos 1624 Rocket 3.9 12:04:34 10° NNW 12:09:44 69° WSW 12:14:54 10° S
Cosmos 1932 4.5 12:08:34 10° NNW 12:14:53 90° ENE 12:21:04 10° SSE
COSMOS 2428 2.6 12:10:05 10° SSW 12:15:44 69° WNW 12:21:25 10° NNE
Cosmos 2333 Rocket 3.4 12:13:29 15° W 12:16:19 20° WNW 12:20:32 10° NNW
JB-3 4.3 12:13:32 10° S 12:17:34 71° W 12:21:38 10° NNW
NOSS 0 Rocket 4.2 12:16:19 10° SSW 12:22:30 75° ESE 12:28:44 10° NNE
SMAP 4.2 12:20:28 10° NNE 12:24:58 47° E 12:29:26 10° S
Cosmos 1076 Rocket 4.5 12:25:46 10° SSE 12:29:53 51° E 12:34:03 10° NNE
Lacrosse 5 rocket 2.1 12:26:31 10° WSW 12:30:20 33° NW 12:34:17 10° NNE
Cosmos 1933 3.3 12:27:06 10° NNW 12:31:01 63° W 12:34:53 10° S
SJ-7 4.4 12:27:07 10° N 12:31:14 85° WNW 12:35:18 10° SSW
SL-08 R/B 3.6 12:26:43 10° S 12:31:16 46° W 12:35:46 10° NNW
Cosmos 1844 Rocket 3.9 12:29:01 11° NW 12:33:04 22° W 12:37:17 10° SSW
Cosmos 1544 2.8 12:30:43 10° S 12:33:53 79° E 12:37:05 10° N
BREEZE-M DEB (TANK) 4.5 12:28:34 11° NW 12:34:12 80° SW 12:57:16 10° SE
Cosmos 1953 Rocket 3.6 12:31:00 10° SSW 12:35:23 66° W 12:39:50 10° N
Cosmos 2279 Rocket 4.2 12:29:17 10° S 12:35:32 83° E 12:41:49 10° N
COSMOS 2455 3.3 12:31:18 10° NW 12:36:53 41° WSW 12:42:26 10° S
ATLAS 3B R/B 4.4 12:34:32 10° WNW 12:37:09 12° NW 12:39:51 10° NNW
H-2A R/B 3.5 12:35:12 10° NW 12:37:43 14° WNW 12:40:14 10° W
SJ-11-01 4.3 12:33:10 10° N 12:37:46 59° WNW 12:42:22 10° SSW
Cosmos-2242 4.3 12:34:59 10° NW 12:38:03 20° W 12:41:05 10° SW
Meteor 2-3 Rocket 4.3 12:33:08 10° SW 12:38:09 34° WNW 12:43:12 10° NNW
Cosmos 1515 4.0 12:35:03 10° N 12:38:38 64° E 12:42:11 10° SSE
CZ-2D R/B 3.6 12:39:51 10° N 12:43:15 38° WNW 12:46:39 10° SW
USA 281 4.5 12:40:45 10° NNW 12:44:49 18° NW 12:48:52 10° W
Cosmos 2278 Rocket 3.8 12:41:06 10° N 12:46:13 35° ENE 12:51:19 10° SE
SeaSat 1 4.3 12:42:45 10° ESE 12:46:55 28° ENE 12:51:05 10° N
Cosmos 2237 Rocket 2.4 12:42:13 10° SSW 12:47:52 82° ESE 12:53:32 10° NNE
Cosmos 1862 3.8 12:44:26 10° SSW 12:47:58 36° W 12:51:32 10° NNW
USA 215 4.2 12:42:48 10° NNE 12:48:05 27° NNW 12:53:22 10° W
Cosmos 2221 2.4 12:44:02 10° N 12:48:15 72° W 12:52:28 10° S
NOSS 2-1 (D) 4.4 23:36:49 10° NNW 23:41:52 86° ENE 23:49:16 10° SSE
Meteor 1-31 Rocket 3.2 23:42:01 10° SE 23:45:24 36° ENE 23:48:49 10° N
Nadezhda 4 Rocket 4.3 23:41:59 10° SSE 23:47:49 46° E 23:53:37 10° NNE
Cosmos 2263 Rocket 2.5 23:44:06 10° SSW 23:49:38 73° WNW 23:55:12 10° NNE
ATLAS 5 CENTAUR R/B 4.2 23:45:29 10° NW 23:50:50 38° WSW 23:57:08 10° S
Cosmos 1844 Rocket 4.1 23:47:37 10° SE 23:51:17 18° E 23:54:57 10° ENE
ERS-2 3.7 23:48:56 10° SSW 23:51:37 33° W 23:54:18 10° NNW
Cosmos 1544 2.7 23:49:37 10° N 23:52:51 85° E 23:56:05 10° S
Cosmos 2227 Rocket 4.5 23:48:57 10° WSW 23:53:07 21° WNW 23:57:19 10° NNW
Tiangong -1.8 23:51:00 10° NW 23:54:04 47° NNE 23:57:07 10° E
Cosmos 1782 4.3 23:52:50 10° SE 23:55:18 16° E 23:57:45 10° NE
